Location: Burgberg
(50.1428°N, 11.0671°E)
Time: 22:28:03
(UTC+00:00)

Cosmos 1726 Rocket - Pass Details

Date: 26 January 2020
Orbit: 602 x 631 km, 82.5° (Epoch: 18 February)

Event Time Altitude Azimuth Distance (km) Brightness Sun altitude
Rises 05:19:35 0° 215° (SW) 2,903 6.8 -15.7°
Reaches altitude 10° 05:22:00 10° 225° (SW) 1,997 5.8 -15.3°
Maximum altitude 05:25:59 32° 289° (WNW) 1,081 4.2 -14.7°
Drops below altitude 10° 05:29:57 10° 353° (N) 1,996 6.0 -14.1°
Sets 05:32:23 0° 3° (N) 2,901 6.9 -13.7°
